Find Starlink 6304

NORAD ID: 56778 Int'l Des: 2023-078 Owner: SPXS Country: US Constellation: starlink operational
LEOCIRCULAR

Live Position

Loading 3D Globe...

About Starlink 6304

Description loading...

Upcoming Passes

Passes for default location (London). Set your location on the main map for personalized predictions.

Altitude History

Loading altitude history...

Two-Line Element Set

1 56778U 23078M 26124.52772441 -.00015562 00000-0 -12972-2 0 9994
2 56778 69.9998 183.8239 0002671 254.9401 105.1463 14.98392737161539
Epoch: May 4, 2026 • Age: 10 hours

Current Status

Altitude 578.4 km
Velocity 7.57 km/s
Sub-Earth Point -18.68°S, 19.87°W
Launch Date May 31, 2023
Age 2.9 years
Type internet

Technical Details

Classification Payload
Mass 305.00 kg
Dry Mass 290.00 kg
Total Mass 305.00 kg
Length 0.20 m
Diameter 2.80 m
Span 9.00 m
Shape Box + pan
Manufacturer SPXS
Bus Type Starlink
Phase Status In Orbit
Owner/State SPXS/US

Most Searched